Banff, Alberta

10:13 PM MDT on August 18, 2017 (GMT -0600)
Banff

Weather History for CWZG - December, 2013

Change the Weather History Date:

Sunday, December 8, 2013

  Actual Average Record
Temperature  
Mean Temperature -3 °F -  
Max Temperature 1 °F - - ()
Min Temperature -7 °F - - ()
Degree Days  
Heating Degree Days 68    
Moisture  
Dew Point -11 °F    
Average Humidity 72    
Maximum Humidity 80    
Minimum Humidity 60    
Precipitation  
Precipitation 0.00 in - - ()
Sea Level Pressure  
Sea Level Pressure 30.28 in    
Wind  
Wind Speed 7 mph ()    
Max Wind Speed 13 mph    
Max Gust Speed 24 mph    
T = Trace of Precipitation, MM = Missing Value Source: Averaged Metar Reports

Daily Weather History Graph

Daily Weather History Graph

Search for Another Location

Airport or City:

Trip Planner

Search our weather history database for the weather conditions in past years. The results will help you decide how hot, cold, wet, or windy it might be!

Date:

Astronomy

Dec. 08, 2013 Rise Set
Actual Time 8:33 AM MST 4:34 PM MST
Civil Twilight 7:54 AM MST 5:14 PM MST
Nautical Twilight 7:11 AM MST 5:56 PM MST
Astronomical Twilight 6:31 AM MST 6:37 PM MST
Moon 12:23 PM MST (12/8) No Moon Set
Length of Visible Light 9h 20m
Length of Day
8h 01m
Waxing Crescent, 40% of the Moon is Illuminated
Dec 8
Waxing Crescent
Dec 9
First Quarter
Dec 17
Full
Dec 25
Last Quarter
Jan 1
New

Hourly Weather History & Observations

Time (MST) Temp. Windchill Dew Point Humidity Pressure Visibility Wind Dir Wind Speed Gust Speed Precip Events Conditions
12:00 AM -6.3 °F -20.6 °F -13.5 °F 71% 30.25 in - WSW 6.9 mph - N/A   Unknown
1:00 AM -6.5 °F -20.8 °F -13.7 °F 71% 30.22 in - West 6.9 mph - N/A   Unknown
2:00 AM -6.9 °F -21.2 °F -13.9 °F 72% 30.20 in - West 6.9 mph - N/A   Unknown
3:00 AM -6.3 °F -19.1 °F -13.9 °F 70% 30.22 in - West 5.8 mph - N/A   Unknown
4:00 AM -6.7 °F -21.0 °F -13.9 °F 71% 30.22 in - SW 6.9 mph - N/A   Unknown
5:00 AM -7.2 °F -21.7 °F -13.7 °F 73% 30.23 in - WSW 6.9 mph - N/A   Unknown
6:00 AM -7.8 °F -19.0 °F -13.9 °F 75% 30.25 in - West 4.6 mph - N/A   Unknown
7:00 AM -7.4 °F -23.2 °F -13.7 °F 74% 30.26 in - SW 8.1 mph - N/A   Unknown
8:00 AM -7.2 °F -23.0 °F -13.2 °F 75% 30.28 in - WSW 8.1 mph - N/A   Unknown
9:00 AM -7.2 °F -21.7 °F -12.3 °F 79% 30.30 in - SW 6.9 mph - N/A   Unknown
10:00 AM -7.2 °F -23.0 °F -11.9 °F 80% 30.34 in - SW 8.1 mph - N/A   Unknown
11:00 AM -4.4 °F -19.5 °F -11.0 °F 73% 30.33 in - SW 8.1 mph - N/A   Unknown
12:00 PM -2.9 °F -18.8 °F -11.2 °F 68% 30.33 in - SW 9.2 mph - N/A   Unknown
1:00 PM 0.1 °F -14.0 °F -9.9 °F 63% 30.31 in - SSW 8.1 mph - N/A   Unknown
2:00 PM 1.2 °F -12.7 °F -9.9 °F 60% 30.30 in - SW 8.1 mph - N/A   Unknown
3:00 PM 1.4 °F -12.5 °F -9.4 °F 61% 30.29 in - SW 8.1 mph - N/A   Unknown
4:00 PM -1.1 °F -15.5 °F -9.4 °F 68% 30.31 in - WSW 8.1 mph - N/A   Unknown
5:00 PM -2.7 °F -14.8 °F -9.9 °F 71% 30.33 in - WSW 5.8 mph - N/A   Unknown
6:00 PM -3.1 °F -15.2 °F -9.8 °F 73% 30.32 in - WSW 5.8 mph - N/A   Unknown
7:00 PM -3.5 °F -19.5 °F -10.1 °F 73% 30.32 in - SW 9.2 mph - N/A   Unknown
8:00 PM -3.5 °F -17.1 °F -9.8 °F 74% 30.31 in - WSW 6.9 mph - N/A   Unknown
9:00 PM -1.8 °F -17.5 °F -7.8 °F 76% 30.30 in - WSW 9.2 mph - N/A   Unknown
10:00 PM -1.1 °F -19.3 °F -6.5 °F 78% 30.28 in - SW 12.7 mph 24.2 mph N/A   Unknown
11:00 PM -0.8 °F -17.2 °F -6.2 °F 78% 30.28 in - WSW 10.4 mph 18.4 mph N/A   Unknown